AFR027 NTAA-KLAX

Flight info

Callsign AFR027
Flight time N/A
Altitude 39000
Route IKELO4W IKELO DCT MIKAT A220 MAEVA DCT 10N138W DCT BORIC B454 ARENS/N0481F410 B454 TONYS B200 FICKY GOATZ2
Aircraft A359/H-SDE2E3GHIJ3J4J5LM1ORWXY/LB1D1

Departure

Time 2026-04-25 05:05
Airport Fa'a'ā International Airport (NTAA)

Arrival

Time N/A
Airport Los Angeles International Airport (KLAX)
Time Latitude Longitude Altitude Speed Heading
2026-04-25 04:30 -17.55851 -149.61009 28 ft 0 kts 144°
2026-04-25 04:53 -17.55837 -149.61019 27 ft 4 kts 144°
2026-04-25 04:53 -17.55815 -149.61036 26 ft 4 kts 144°
2026-04-25 04:53 -17.55794 -149.61050 27 ft 4 kts 171°
2026-04-25 04:53 -17.55771 -149.61045 27 ft 4 kts 222°
2026-04-25 04:54 -17.55758 -149.61031 26 ft 0 kts 232°
2026-04-25 04:59 -17.55763 -149.61042 27 ft 4 kts 251°
2026-04-25 04:59 -17.55744 -149.61080 27 ft 9 kts 315°
2026-04-25 05:00 -17.55674 -149.61123 26 ft 12 kts
2026-04-25 05:00 -17.55612 -149.61069 26 ft 13 kts 54°
2026-04-25 05:00 -17.55551 -149.60985 28 ft 16 kts 53°
2026-04-25 05:00 -17.55482 -149.60885 28 ft 18 kts 54°
2026-04-25 05:01 -17.55398 -149.60763 28 ft 23 kts 54°
2026-04-25 05:01 -17.55296 -149.60615 27 ft 27 kts 54°
2026-04-25 05:01 -17.55177 -149.60444 31 ft 30 kts 54°
2026-04-25 05:01 -17.55061 -149.60275 30 ft 28 kts 54°
2026-04-25 05:02 -17.54950 -149.60113 28 ft 26 kts 54°
2026-04-25 05:02 -17.54844 -149.59959 30 ft 26 kts 54°
2026-04-25 05:02 -17.54740 -149.59807 27 ft 25 kts 54°
2026-04-25 05:02 -17.54636 -149.59655 31 ft 26 kts 54°
2026-04-25 05:03 -17.54552 -149.59532 29 ft 15 kts 56°
2026-04-25 05:03 -17.54523 -149.59453 28 ft 10 kts 87°
2026-04-25 05:03 -17.54514 -149.59438 27 ft 0 kts 27°
2026-04-25 05:03 -17.54509 -149.59439 30 ft 1 kts
2026-04-25 05:04 -17.54504 -149.59451 30 ft 2 kts 285°
2026-04-25 05:04 -17.54520 -149.59485 28 ft 8 kts 236°
2026-04-25 05:04 -17.54525 -149.59494 31 ft 0 kts 234°
2026-04-25 05:04 -17.54580 -149.59574 31 ft 42 kts 234°
2026-04-25 05:05 -17.54874 -149.60002 31 ft 101 kts 234°
2026-04-25 05:05 -17.55391 -149.60754 28 ft 151 kts 234°
2026-04-25 05:05 -17.56058 -149.61715 388 ft 163 kts 235°
2026-04-25 05:05 -17.56660 -149.62695 994 ft 159 kts 244°
2026-04-25 05:06 -17.56652 -149.63855 1307 ft 170 kts 297°
2026-04-25 05:06 -17.55744 -149.64664 1610 ft 182 kts 340°
2026-04-25 05:06 -17.54429 -149.64802 1854 ft 200 kts
2026-04-25 05:06 -17.53009 -149.64603 2284 ft 209 kts
2026-04-25 05:07 -17.51543 -149.64358 2782 ft 216 kts
2026-04-25 05:07 -17.50048 -149.64153 3361 ft 218 kts
2026-04-25 05:07 -17.48530 -149.63954 3869 ft 223 kts
2026-04-25 05:07 -17.46941 -149.63744 4204 ft 239 kts
2026-04-25 05:08 -17.45227 -149.63515 4486 ft 257 kts
2026-04-25 05:08 -17.43414 -149.63273 4921 ft 267 kts
2026-04-25 05:08 -17.41552 -149.63023 5506 ft 272 kts
2026-04-25 05:08 -17.39658 -149.62769 6140 ft 276 kts
2026-04-25 05:09 -17.37745 -149.62513 6757 ft 279 kts
2026-04-25 05:09 -17.35804 -149.62252 7379 ft 283 kts
2026-04-25 05:09 -17.33844 -149.61989 8016 ft 286 kts
2026-04-25 05:09 -17.31857 -149.61723 8658 ft 290 kts
2026-04-25 05:10 -17.29856 -149.61450 9286 ft 293 kts
2026-04-25 05:10 -17.27908 -149.60800 9858 ft 299 kts 30°
2026-04-25 05:10 -17.26196 -149.59520 10269 ft 310 kts 38°
2026-04-25 05:10 -17.24503 -149.58076 10514 ft 325 kts 39°
2026-04-25 05:11 -17.22693 -149.56521 10765 ft 340 kts 39°
2026-04-25 05:11 -17.20842 -149.54944 11009 ft 354 kts 38°
2026-04-25 05:11 -17.18896 -149.53297 11239 ft 366 kts 38°
2026-04-25 05:12 -17.14836 -149.49877 11942 ft 380 kts 38°
2026-04-25 05:12 -17.12767 -149.48138 12421 ft 383 kts 38°
2026-04-25 05:12 -17.10682 -149.46386 12889 ft 386 kts 38°
2026-04-25 05:12 -17.08580 -149.44622 13361 ft 388 kts 38°
2026-04-25 05:13 -17.06470 -149.42851 13817 ft 391 kts 38°
2026-04-25 05:13 -17.04338 -149.41063 14201 ft 394 kts 39°
2026-04-25 05:13 -17.02191 -149.39263 14565 ft 397 kts 39°
2026-04-25 05:13 -17.00025 -149.37447 14942 ft 400 kts 39°
2026-04-25 05:14 -16.97846 -149.35622 15335 ft 403 kts 39°
2026-04-25 05:14 -16.95647 -149.33779 15724 ft 406 kts 39°
2026-04-25 05:14 -16.93436 -149.31928 16087 ft 409 kts 39°
2026-04-25 05:15 -16.88962 -149.28184 16856 ft 415 kts 39°
2026-04-25 05:15 -16.86709 -149.26300 17247 ft 417 kts 39°
2026-04-25 05:15 -16.84433 -149.24396 17616 ft 420 kts 40°
2026-04-25 05:15 -16.82138 -149.22496 17977 ft 423 kts 38°
2026-04-25 05:16 -16.79654 -149.20811 18312 ft 427 kts 28°
2026-04-25 05:16 -16.76945 -149.19525 18641 ft 430 kts 22°
2026-04-25 05:16 -16.74144 -149.18411 18985 ft 432 kts 20°
2026-04-25 05:16 -16.71297 -149.17380 19323 ft 434 kts 19°
2026-04-25 05:17 -16.68430 -149.16377 19663 ft 436 kts 19°
2026-04-25 05:17 -16.65546 -149.15369 20003 ft 438 kts 19°
2026-04-25 05:17 -16.62658 -149.14348 20343 ft 440 kts 19°
2026-04-25 05:17 -16.59759 -149.13308 20699 ft 442 kts 19°
2026-04-25 05:18 -16.56850 -149.12253 21042 ft 444 kts 19°
2026-04-25 05:18 -16.53931 -149.11188 21388 ft 446 kts 20°
2026-04-25 05:18 -16.51004 -149.10116 21736 ft 448 kts 20°
2026-04-25 05:18 -16.48059 -149.09037 22084 ft 450 kts 20°
2026-04-25 05:19 -16.45097 -149.07952 22430 ft 452 kts 20°
2026-04-25 05:19 -16.42121 -149.06863 22782 ft 454 kts 19°
2026-04-25 05:19 -16.39140 -149.05772 23130 ft 456 kts 19°
2026-04-25 05:19 -16.36134 -149.04674 23457 ft 458 kts 19°
2026-04-25 05:20 -16.33117 -149.03572 23740 ft 461 kts 19°
2026-04-25 05:20 -16.30085 -149.02466 23996 ft 464 kts 19°
2026-04-25 05:20 -16.27025 -149.01350 24247 ft 467 kts 19°
2026-04-25 05:20 -16.23993 -149.00244 24514 ft 469 kts 20°
2026-04-25 05:21 -16.20865 -148.99103 24808 ft 472 kts 20°
2026-04-25 05:21 -16.17793 -148.97983 25113 ft 475 kts 20°
2026-04-25 05:21 -16.14666 -148.96844 25430 ft 477 kts 20°
2026-04-25 05:21 -16.11522 -148.95698 25757 ft 480 kts 20°
2026-04-25 05:22 -16.08361 -148.94547 26092 ft 483 kts 20°
2026-04-25 05:22 -16.05177 -148.93388 26423 ft 486 kts 20°
2026-04-25 05:22 -16.01926 -148.92205 26762 ft 489 kts 20°
2026-04-25 05:22 -15.98748 -148.91049 27091 ft 492 kts 20°
2026-04-25 05:23 -15.96560 -148.90253 27314 ft 494 kts 20°
2026-04-25 05:23 -15.92243 -148.88684 27771 ft 498 kts 20°
2026-04-25 05:23 -15.88959 -148.87491 28097 ft 501 kts 20°
2026-04-25 05:23 -15.85658 -148.86291 28420 ft 504 kts 20°
2026-04-25 05:24 -15.82340 -148.85086 28754 ft 507 kts 20°
2026-04-25 05:24 -15.79006 -148.83876 29065 ft 510 kts 20°
2026-04-25 05:24 -15.76740 -148.83053 29282 ft 512 kts 20°
2026-04-25 05:24 -15.73366 -148.81829 29587 ft 514 kts 20°
2026-04-25 05:25 -15.70028 -148.80619 29883 ft 517 kts 20°
2026-04-25 05:25 -15.66621 -148.79379 30132 ft 520 kts 20°
2026-04-25 05:25 -15.63237 -148.78045 30373 ft 522 kts 22°
2026-04-25 05:25 -15.59863 -148.76628 30625 ft 524 kts 23°
2026-04-25 05:26 -15.56482 -148.75178 30872 ft 526 kts 23°
2026-04-25 05:26 -15.53096 -148.73726 31109 ft 528 kts 23°
2026-04-25 05:26 -15.49686 -148.72276 31339 ft 530 kts 23°
2026-04-25 05:26 -15.46267 -148.70837 31574 ft 532 kts 23°
2026-04-25 05:27 -15.42824 -148.69399 31780 ft 534 kts 22°
2026-04-25 05:27 -15.39367 -148.67962 32023 ft 535 kts 22°
2026-04-25 05:27 -15.35913 -148.66531 32350 ft 535 kts 22°
2026-04-25 05:27 -15.32460 -148.65101 32659 ft 534 kts 22°
2026-04-25 05:28 -15.29015 -148.63675 32964 ft 534 kts 22°
2026-04-25 05:28 -15.25566 -148.62247 33265 ft 533 kts 23°
2026-04-25 05:28 -15.22121 -148.60822 33555 ft 533 kts 23°
2026-04-25 05:28 -15.18674 -148.59395 33831 ft 533 kts 23°
2026-04-25 05:29 -15.15233 -148.57970 34078 ft 533 kts 23°
2026-04-25 05:29 -15.11796 -148.56548 34338 ft 532 kts 23°
2026-04-25 05:29 -15.08366 -148.55130 34612 ft 531 kts 23°
2026-04-25 05:29 -15.04933 -148.53710 34871 ft 530 kts 23°
2026-04-25 05:30 -15.01516 -148.52298 35117 ft 529 kts 23°
2026-04-25 05:30 -14.98100 -148.50888 35358 ft 528 kts 23°
2026-04-25 05:30 -14.94702 -148.49459 35608 ft 527 kts 24°
2026-04-25 05:30 -14.91327 -148.48017 35916 ft 524 kts 24°
2026-04-25 05:31 -14.87961 -148.46573 36155 ft 523 kts 24°
2026-04-25 05:31 -14.84601 -148.45131 36367 ft 523 kts 24°
2026-04-25 05:31 -14.81250 -148.43697 36569 ft 522 kts 24°
2026-04-25 05:31 -14.77887 -148.42261 36779 ft 521 kts 24°
2026-04-25 05:32 -14.74538 -148.40835 36989 ft 521 kts 24°
2026-04-25 05:32 -14.71189 -148.39412 37169 ft 520 kts 24°
2026-04-25 05:32 -14.67846 -148.37992 37362 ft 519 kts 24°
2026-04-25 05:32 -14.64513 -148.36577 37539 ft 519 kts 24°
2026-04-25 05:33 -14.61177 -148.35161 37781 ft 516 kts 24°
2026-04-25 05:33 -14.57863 -148.33756 38079 ft 513 kts 25°
2026-04-25 05:33 -14.54565 -148.32357 38259 ft 512 kts 25°
2026-04-25 05:33 -14.51270 -148.30960 38398 ft 512 kts 25°
2026-04-25 05:34 -14.47978 -148.29564 38528 ft 512 kts 25°
2026-04-25 05:34 -14.44689 -148.28170 38644 ft 511 kts 25°
2026-04-25 05:34 -14.41395 -148.26774 38748 ft 511 kts 24°
2026-04-25 05:34 -14.38108 -148.25382 38855 ft 511 kts 24°
2026-04-25 05:35 -14.34824 -148.23992 38901 ft 512 kts 24°
2026-04-25 05:35 -14.28212 -148.21193 38927 ft 515 kts 24°
2026-04-25 05:36 -14.21604 -148.18399 38912 ft 512 kts 24°
2026-04-25 05:36 -14.15023 -148.15618 38914 ft 512 kts 24°
2026-04-25 05:37 -14.08435 -148.12835 38922 ft 512 kts 24°
2026-04-25 05:37 -14.01891 -148.10072 38914 ft 511 kts 24°
2026-04-25 05:38 -13.95307 -148.07295 38915 ft 511 kts 24°
2026-04-25 05:38 -13.88733 -148.04523 38914 ft 510 kts 24°
2026-04-25 05:39 -13.82172 -148.01759 38913 ft 510 kts 24°
2026-04-25 05:39 -13.75605 -147.98993 38910 ft 510 kts 24°
2026-04-25 05:40 -13.69037 -147.96229 38915 ft 510 kts 24°
2026-04-25 05:40 -13.62475 -147.93469 38924 ft 509 kts 24°
2026-04-25 05:41 -13.55910 -147.90710 38921 ft 509 kts 24°
2026-04-25 05:41 -13.49346 -147.87952 38931 ft 510 kts 24°
2026-04-25 05:42 -13.42783 -147.85197 38914 ft 510 kts 24°
2026-04-25 05:42 -13.36218 -147.82442 38914 ft 510 kts 24°
2026-04-25 05:43 -13.29646 -147.79686 38913 ft 510 kts 24°
2026-04-25 05:43 -13.23080 -147.76934 38912 ft 510 kts 24°
2026-04-25 05:44 -13.16509 -147.74182 38927 ft 510 kts 24°
2026-04-25 05:44 -13.09945 -147.71435 38916 ft 510 kts 24°
2026-04-25 05:45 -13.03370 -147.68684 38913 ft 510 kts 24°
2026-04-25 05:45 -12.96807 -147.65939 38918 ft 510 kts 24°
2026-04-25 05:46 -12.90221 -147.63187 38921 ft 511 kts 24°
2026-04-25 05:46 -12.83633 -147.60436 38922 ft 512 kts 24°
2026-04-25 05:47 -12.77044 -147.57686 38923 ft 511 kts 24°
2026-04-25 05:47 -12.70451 -147.54935 38926 ft 511 kts 24°
2026-04-25 05:48 -12.63904 -147.52205 38922 ft 512 kts 24°
2026-04-25 05:48 -12.57309 -147.49457 38923 ft 512 kts 24°
2026-04-25 05:49 -12.50708 -147.46709 38922 ft 512 kts 24°
2026-04-25 05:49 -12.44104 -147.43960 38923 ft 512 kts 24°
2026-04-25 05:50 -12.37510 -147.41217 38923 ft 512 kts 24°
2026-04-25 05:50 -12.30906 -147.38471 38921 ft 512 kts 24°
2026-04-25 05:51 -12.24306 -147.35728 38929 ft 513 kts 24°
2026-04-25 05:51 -12.17698 -147.32983 38932 ft 513 kts 24°
2026-04-25 05:52 -12.11087 -147.30239 38915 ft 513 kts 24°
2026-04-25 05:52 -12.04475 -147.27496 38925 ft 513 kts 24°
2026-04-25 05:53 -11.97864 -147.24754 38922 ft 513 kts 23°
2026-04-25 05:53 -11.91252 -147.22014 38921 ft 512 kts 23°
2026-04-25 05:54 -11.84646 -147.19278 38925 ft 512 kts 23°
2026-04-25 05:54 -11.74737 -147.15176 38920 ft 512 kts 23°
2026-04-25 05:55 -11.68135 -147.12444 38919 ft 512 kts 23°
2026-04-25 05:55 -11.61533 -147.09714 38919 ft 512 kts 23°
2026-04-25 05:56 -11.54927 -147.06985 38922 ft 512 kts 23°
2026-04-25 05:56 -11.48321 -147.04256 38923 ft 512 kts 23°
2026-04-25 05:57 -11.41714 -147.01528 38923 ft 512 kts 23°
2026-04-25 05:57 -11.35149 -146.98819 38925 ft 512 kts 22°
2026-04-25 05:58 -11.28548 -146.96097 38925 ft 511 kts 22°
2026-04-25 05:58 -11.21953 -146.93378 38926 ft 511 kts 22°
2026-04-25 05:59 -11.15358 -146.90661 38925 ft 511 kts 22°
2026-04-25 05:59 -11.08757 -146.87943 38926 ft 511 kts 22°
2026-04-25 06:00 -11.02161 -146.85228 38926 ft 511 kts 22°
2026-04-25 06:00 -10.95586 -146.82522 38926 ft 510 kts 22°
2026-04-25 06:01 -10.88996 -146.79812 38921 ft 510 kts 22°
2026-04-25 06:01 -10.82414 -146.77107 38922 ft 510 kts 22°
2026-04-25 06:02 -10.75829 -146.74402 38926 ft 510 kts 22°
2026-04-25 06:02 -10.69240 -146.71696 38924 ft 510 kts 21°
2026-04-25 06:03 -10.62665 -146.68997 38922 ft 510 kts 21°
2026-04-25 06:03 -10.56087 -146.66299 38923 ft 510 kts 21°
2026-04-25 06:04 -10.49512 -146.63602 38925 ft 510 kts 21°
2026-04-25 06:04 -10.42972 -146.60922 38925 ft 510 kts 21°
2026-04-25 06:05 -10.36400 -146.58228 38920 ft 510 kts 21°
2026-04-25 06:05 -10.29814 -146.55532 38923 ft 511 kts 21°
2026-04-25 06:06 -10.23225 -146.52835 38921 ft 511 kts 21°
2026-04-25 06:06 -10.16628 -146.50136 38926 ft 511 kts 21°
2026-04-25 06:07 -10.10032 -146.47439 38925 ft 511 kts 21°
2026-04-25 06:07 -10.03448 -146.44747 38924 ft 511 kts 21°
2026-04-25 06:08 -9.96848 -146.42057 38921 ft 511 kts 20°
2026-04-25 06:08 -9.90253 -146.39384 38924 ft 511 kts 20°
2026-04-25 06:09 -9.83646 -146.36709 38924 ft 511 kts 20°
2026-04-25 06:09 -9.77045 -146.34036 38922 ft 511 kts 20°
2026-04-25 06:10 -9.70442 -146.31364 38927 ft 512 kts 20°
2026-04-25 06:10 -9.63815 -146.28682 38925 ft 513 kts 20°
2026-04-25 06:11 -9.58307 -146.26453 38925 ft 513 kts 20°
2026-04-25 06:11 -9.51678 -146.23772 38926 ft 513 kts 20°
2026-04-25 06:12 -9.45056 -146.21095 38922 ft 513 kts 20°
2026-04-25 06:12 -9.38418 -146.18413 38924 ft 514 kts 19°
2026-04-25 06:13 -9.31761 -146.15725 38925 ft 516 kts 19°
2026-04-25 06:14 -9.21762 -146.11689 38927 ft 516 kts 19°
2026-04-25 06:14 -9.15090 -146.08997 38924 ft 516 kts 19°
2026-04-25 06:15 -9.08417 -146.06306 38921 ft 516 kts 19°
2026-04-25 06:15 -9.01748 -146.03618 38925 ft 516 kts 19°
2026-04-25 06:16 -8.95081 -146.00931 38927 ft 516 kts 19°
2026-04-25 06:16 -8.88411 -145.98244 38926 ft 516 kts 19°
2026-04-25 06:17 -8.81745 -145.95560 38924 ft 516 kts 19°
2026-04-25 06:17 -8.75068 -145.92873 38923 ft 518 kts 19°
2026-04-25 06:18 -8.68346 -145.90170 38926 ft 522 kts 19°
2026-04-25 06:18 -8.61590 -145.87453 38926 ft 523 kts 19°
2026-04-25 06:19 -8.54832 -145.84735 38926 ft 523 kts 19°
2026-04-25 06:19 -8.48122 -145.82038 38926 ft 522 kts 19°
2026-04-25 06:20 -8.41358 -145.79321 38925 ft 524 kts 18°
2026-04-25 06:20 -8.34582 -145.76600 38926 ft 525 kts 18°
2026-04-25 06:21 -8.27790 -145.73874 38928 ft 525 kts 18°
2026-04-25 06:21 -8.20996 -145.71147 38927 ft 525 kts 18°
2026-04-25 06:22 -8.14209 -145.68425 38923 ft 525 kts 18°
2026-04-25 06:22 -8.07440 -145.65710 38925 ft 522 kts 18°
2026-04-25 06:23 -8.00700 -145.63008 38921 ft 521 kts 18°
2026-04-25 06:23 -7.93977 -145.60315 38923 ft 520 kts 18°
2026-04-25 06:24 -7.87247 -145.57620 38924 ft 520 kts 18°
2026-04-25 06:24 -7.80513 -145.54924 38923 ft 520 kts 18°
2026-04-25 06:25 -7.73806 -145.52239 38926 ft 518 kts 18°
2026-04-25 06:25 -7.67107 -145.49558 38926 ft 518 kts 18°
2026-04-25 06:26 -7.60400 -145.46876 38931 ft 519 kts 18°
2026-04-25 06:26 -7.53687 -145.44192 38927 ft 519 kts 18°
2026-04-25 06:27 -7.46984 -145.41513 38919 ft 518 kts 18°
2026-04-25 06:27 -7.40293 -145.38839 38924 ft 517 kts 18°
2026-04-25 06:28 -7.33659 -145.36189 38929 ft 517 kts 18°
2026-04-25 06:28 -7.26974 -145.33519 38923 ft 517 kts 18°
2026-04-25 06:29 -7.20293 -145.30853 38923 ft 517 kts 18°
2026-04-25 06:29 -7.13621 -145.28190 38925 ft 515 kts 19°
2026-04-25 06:30 -7.06968 -145.25535 38923 ft 514 kts 18°
2026-04-25 06:30 -7.00308 -145.22880 38927 ft 515 kts 18°
2026-04-25 06:31 -6.93649 -145.20225 38927 ft 515 kts 18°
2026-04-25 06:31 -6.86989 -145.17570 38925 ft 515 kts 18°
2026-04-25 06:32 -6.80334 -145.14918 38920 ft 513 kts 19°
2026-04-25 06:32 -6.73705 -145.12278 38920 ft 512 kts 18°
2026-04-25 06:33 -6.67077 -145.09638 38925 ft 512 kts 18°
2026-04-25 06:33 -6.60448 -145.07000 38921 ft 512 kts 18°
2026-04-25 06:34 -6.53822 -145.04362 38922 ft 512 kts 18°
2026-04-25 06:34 -6.47208 -145.01731 38923 ft 511 kts 18°
2026-04-25 06:35 -6.40590 -144.99098 38922 ft 511 kts 18°
2026-04-25 06:35 -6.33977 -144.96469 38919 ft 512 kts 18°
2026-04-25 06:36 -6.27349 -144.93834 38925 ft 512 kts 18°
2026-04-25 06:36 -6.20775 -144.91221 38914 ft 512 kts 18°
2026-04-25 06:37 -6.14121 -144.88577 38924 ft 510 kts 18°
2026-04-25 06:37 -6.07573 -144.85976 38924 ft 510 kts 18°
2026-04-25 06:38 -6.00971 -144.83355 38918 ft 510 kts 18°
2026-04-25 06:38 -5.94374 -144.80736 38922 ft 510 kts 18°
2026-04-25 06:39 -5.87780 -144.78119 38922 ft 510 kts 18°
2026-04-25 06:39 -5.81185 -144.75502 38924 ft 510 kts 18°
2026-04-25 06:40 -5.74590 -144.72885 38922 ft 510 kts 18°
2026-04-25 06:40 -5.67986 -144.70266 38923 ft 510 kts 18°
2026-04-25 06:41 -5.61385 -144.67649 38923 ft 510 kts 18°
2026-04-25 06:41 -5.54782 -144.65031 38919 ft 510 kts 18°
2026-04-25 06:42 -5.48189 -144.62418 38919 ft 510 kts 18°
2026-04-25 06:42 -5.41589 -144.59803 38919 ft 510 kts 18°
2026-04-25 06:43 -5.34987 -144.57188 38921 ft 510 kts 18°
2026-04-25 06:43 -5.28385 -144.54574 38920 ft 510 kts 18°
2026-04-25 06:44 -5.21784 -144.51960 38925 ft 511 kts 17°
2026-04-25 06:44 -5.15165 -144.49340 38922 ft 511 kts 17°
2026-04-25 06:45 -5.08551 -144.46722 38919 ft 511 kts 17°
2026-04-25 06:45 -5.01928 -144.44102 38916 ft 511 kts 17°
2026-04-25 06:46 -4.95306 -144.41478 38915 ft 512 kts 17°
2026-04-25 06:46 -4.88691 -144.38836 38919 ft 512 kts 17°
2026-04-25 06:47 -4.82079 -144.36194 38919 ft 512 kts 17°
2026-04-25 06:47 -4.75497 -144.33569 38922 ft 512 kts 17°
2026-04-25 06:48 -4.68876 -144.30931 38919 ft 512 kts 17°
2026-04-25 06:48 -4.62257 -144.28293 38918 ft 512 kts 17°
2026-04-25 06:49 -4.55640 -144.25658 38922 ft 512 kts 17°
2026-04-25 06:49 -4.49022 -144.23022 38922 ft 512 kts 17°
2026-04-25 06:50 -4.42402 -144.20386 38919 ft 512 kts 17°
2026-04-25 06:50 -4.35782 -144.17751 38919 ft 512 kts 17°
2026-04-25 06:51 -4.29157 -144.15114 38920 ft 512 kts 16°
2026-04-25 06:51 -4.22537 -144.12479 38920 ft 511 kts 16°
2026-04-25 06:52 -4.15932 -144.09851 38919 ft 511 kts 16°
2026-04-25 06:52 -4.09318 -144.07220 38919 ft 511 kts 16°
2026-04-25 06:53 -4.02705 -144.04590 38918 ft 511 kts 16°
2026-04-25 06:53 -3.96093 -144.01960 38919 ft 510 kts 16°
2026-04-25 06:54 -3.89497 -143.99338 38921 ft 510 kts 16°
2026-04-25 06:54 -3.82896 -143.96714 38916 ft 510 kts 16°
2026-04-25 06:55 -3.76296 -143.94091 38918 ft 510 kts 16°
2026-04-25 06:55 -3.69692 -143.91467 38919 ft 510 kts 16°
2026-04-25 06:56 -3.63100 -143.88847 38919 ft 509 kts 16°
2026-04-25 06:56 -3.56518 -143.86232 38919 ft 509 kts 16°
2026-04-25 06:57 -3.49982 -143.83636 38915 ft 509 kts 16°
2026-04-25 06:57 -3.44477 -143.81450 38916 ft 509 kts 16°
2026-04-25 06:58 -3.36821 -143.78411 38917 ft 509 kts 16°
2026-04-25 06:58 -3.31311 -143.76222 38919 ft 508 kts 16°
2026-04-25 06:59 -3.24746 -143.73616 38919 ft 508 kts 16°
2026-04-25 06:59 -3.18179 -143.71010 38919 ft 508 kts 16°
2026-04-25 07:00 -3.11611 -143.68403 38919 ft 508 kts 16°
2026-04-25 07:00 -3.05047 -143.65799 38920 ft 507 kts 16°
2026-04-25 07:01 -2.98484 -143.63194 38922 ft 507 kts 16°
2026-04-25 07:01 -2.91971 -143.60611 38919 ft 507 kts 16°
2026-04-25 07:02 -2.85418 -143.58012 38919 ft 507 kts 16°
2026-04-25 07:02 -2.78868 -143.55414 38919 ft 507 kts 16°
2026-04-25 07:03 -2.72309 -143.52813 38919 ft 507 kts 16°
2026-04-25 07:03 -2.65753 -143.50213 38919 ft 507 kts 16°
2026-04-25 07:04 -2.59196 -143.47613 38919 ft 507 kts 16°
2026-04-25 07:04 -2.52638 -143.45014 38919 ft 507 kts 16°
2026-04-25 07:05 -2.46080 -143.42414 38919 ft 507 kts 16°
2026-04-25 07:05 -2.39519 -143.39814 38922 ft 507 kts 16°
2026-04-25 07:06 -2.32965 -143.37216 38919 ft 507 kts 16°
2026-04-25 07:06 -2.26408 -143.34618 38919 ft 507 kts 16°
2026-04-25 07:07 -2.19854 -143.32021 38919 ft 507 kts 16°
2026-04-25 07:07 -2.13302 -143.29425 38920 ft 507 kts 16°
2026-04-25 07:08 -2.06756 -143.26832 38916 ft 506 kts 16°
2026-04-25 07:08 -2.00214 -143.24240 38918 ft 505 kts 16°
2026-04-25 07:09 -1.93683 -143.21654 38916 ft 505 kts 16°
2026-04-25 07:09 -1.87152 -143.19067 38917 ft 505 kts 16°
2026-04-25 07:10 -1.80615 -143.16478 38918 ft 505 kts 16°
2026-04-25 07:10 -1.74097 -143.13897 38920 ft 504 kts 16°
2026-04-25 07:11 -1.67585 -143.11318 38917 ft 504 kts 16°
2026-04-25 07:11 -1.61065 -143.08737 38917 ft 504 kts 16°
2026-04-25 07:12 -1.54590 -143.06174 38911 ft 504 kts 16°
2026-04-25 07:12 -1.44828 -143.02309 38911 ft 503 kts 16°
2026-04-25 07:13 -1.38332 -142.99738 38911 ft 502 kts 16°
2026-04-25 07:13 -1.31837 -142.97167 38911 ft 502 kts 16°
2026-04-25 07:14 -1.25348 -142.94599 38914 ft 502 kts 16°
2026-04-25 07:14 -1.18857 -142.92030 38911 ft 501 kts 16°
2026-04-25 07:15 -1.12374 -142.89464 38911 ft 501 kts 16°
2026-04-25 07:15 -1.05900 -142.86902 38911 ft 501 kts 16°
2026-04-25 07:16 -0.99419 -142.84338 38911 ft 501 kts 16°
2026-04-25 07:16 -0.92944 -142.81776 38911 ft 501 kts 16°
2026-04-25 07:17 -0.86471 -142.79214 38911 ft 500 kts 16°
2026-04-25 07:17 -0.80008 -142.76656 38908 ft 500 kts 16°
2026-04-25 07:18 -0.73543 -142.74099 38911 ft 499 kts 16°
2026-04-25 07:18 -0.67085 -142.71544 38911 ft 499 kts 16°
2026-04-25 07:19 -0.60674 -142.69008 38908 ft 499 kts 16°
2026-04-25 07:19 -0.54211 -142.66451 38908 ft 500 kts 15°
2026-04-25 07:20 -0.47748 -142.63894 38905 ft 500 kts 15°
2026-04-25 07:20 -0.41284 -142.61337 38906 ft 500 kts 15°
2026-04-25 07:21 -0.34817 -142.58778 38908 ft 500 kts 15°
2026-04-25 07:21 -0.28354 -142.56222 38906 ft 500 kts 15°
2026-04-25 07:22 -0.21889 -142.53664 38908 ft 500 kts 15°
2026-04-25 07:22 -0.15421 -142.51106 38909 ft 500 kts 15°
2026-04-25 07:23 -0.08952 -142.48547 38908 ft 500 kts 15°
2026-04-25 07:23 -0.02486 -142.45989 38909 ft 500 kts 15°
2026-04-25 07:24 0.03982 -142.43440 38907 ft 499 kts 15°
2026-04-25 07:24 0.10452 -142.40919 38909 ft 499 kts 15°
2026-04-25 07:25 0.16925 -142.38402 38908 ft 499 kts 15°
2026-04-25 07:25 0.23395 -142.35882 38908 ft 499 kts 15°
2026-04-25 07:26 0.29865 -142.33359 38906 ft 499 kts 15°
2026-04-25 07:26 0.36334 -142.30836 38906 ft 499 kts 15°
2026-04-25 07:27 0.42801 -142.28314 38912 ft 499 kts 15°
2026-04-25 07:27 0.49272 -142.25790 38906 ft 499 kts 15°
2026-04-25 07:28 0.55741 -142.23268 38906 ft 499 kts 15°
2026-04-25 07:28 0.62206 -142.20746 38908 ft 499 kts 15°
2026-04-25 07:29 0.68691 -142.18218 38906 ft 500 kts 15°
2026-04-25 07:29 0.75177 -142.15688 38906 ft 500 kts 15°
2026-04-25 07:30 0.81662 -142.13158 38908 ft 500 kts 15°
2026-04-25 07:30 0.88098 -142.10648 38908 ft 500 kts 15°
2026-04-25 07:31 0.94585 -142.08118 38906 ft 501 kts 15°
2026-04-25 07:31 1.01079 -142.05585 38906 ft 501 kts 15°
2026-04-25 07:32 1.07580 -142.03049 38906 ft 502 kts 15°
2026-04-25 07:32 1.14091 -142.00509 38905 ft 502 kts 15°
2026-04-25 07:33 1.20598 -141.97970 38908 ft 502 kts 15°
2026-04-25 07:33 1.27117 -141.95428 38909 ft 503 kts 16°
2026-04-25 07:34 1.33636 -141.92884 38908 ft 503 kts 16°
2026-04-25 07:34 1.40159 -141.90338 38908 ft 503 kts 16°
2026-04-25 07:35 1.46676 -141.87795 38908 ft 503 kts 16°
2026-04-25 07:35 1.53198 -141.85250 38908 ft 504 kts 17°
2026-04-25 07:36 1.59735 -141.82700 38909 ft 504 kts 17°
2026-04-25 07:36 1.66267 -141.80150 38909 ft 504 kts 17°
2026-04-25 07:37 1.72802 -141.77598 38908 ft 504 kts 17°
2026-04-25 07:37 1.79281 -141.75069 38908 ft 503 kts 17°
2026-04-25 07:38 1.85804 -141.72523 38911 ft 503 kts 17°
2026-04-25 07:38 1.92316 -141.69980 38911 ft 502 kts 17°
2026-04-25 07:39 1.98829 -141.67437 38911 ft 502 kts 17°
2026-04-25 07:39 2.05340 -141.64895 38911 ft 502 kts 17°
2026-04-25 07:40 2.11850 -141.62353 38913 ft 502 kts 17°
2026-04-25 07:40 2.18354 -141.59812 38911 ft 502 kts 17°
2026-04-25 07:41 2.24864 -141.57270 38911 ft 502 kts 17°
2026-04-25 07:41 2.31363 -141.54732 38911 ft 502 kts 17°
2026-04-25 07:42 2.37870 -141.52190 38911 ft 502 kts 17°
2026-04-25 07:42 2.44345 -141.49660 38911 ft 503 kts 17°
2026-04-25 07:43 2.50871 -141.47111 38911 ft 504 kts 17°
2026-04-25 07:43 2.57445 -141.44541 38911 ft 504 kts 17°
2026-04-25 07:44 2.63928 -141.42007 38914 ft 504 kts 17°
2026-04-25 07:44 2.70496 -141.39440 38914 ft 504 kts 17°
2026-04-25 07:45 2.76976 -141.36907 38916 ft 503 kts 17°
2026-04-25 07:45 2.83497 -141.34357 38917 ft 503 kts 17°
2026-04-25 07:46 2.90019 -141.31807 38914 ft 503 kts 17°
2026-04-25 07:46 2.95441 -141.29687 38914 ft 503 kts 17°
2026-04-25 07:47 3.01960 -141.27137 38915 ft 504 kts 17°
2026-04-25 07:47 3.08486 -141.24585 38916 ft 504 kts 17°
2026-04-25 07:48 3.15026 -141.22026 38916 ft 504 kts 17°
2026-04-25 07:48 3.21562 -141.19469 38916 ft 504 kts 17°
2026-04-25 07:49 3.28102 -141.16910 38916 ft 504 kts 17°
2026-04-25 07:49 3.34632 -141.14354 38916 ft 504 kts 17°
2026-04-25 07:50 3.41171 -141.11795 38916 ft 504 kts 17°
2026-04-25 07:50 3.47704 -141.09238 38917 ft 504 kts 17°
2026-04-25 07:51 3.54211 -141.06577 38916 ft 507 kts 20°
2026-04-25 07:51 3.60590 -141.03530 38917 ft 509 kts 21°
2026-04-25 07:52 3.66964 -141.00432 38917 ft 509 kts 21°
2026-04-25 07:52 3.73362 -140.97389 38919 ft 509 kts 20°
2026-04-25 07:53 3.79773 -140.94379 38919 ft 509 kts 20°
2026-04-25 07:53 3.86188 -140.91376 38919 ft 509 kts 20°
2026-04-25 07:54 3.92612 -140.88367 38919 ft 510 kts 20°
2026-04-25 07:54 3.99038 -140.85354 38919 ft 509 kts 20°
2026-04-25 07:55 4.05452 -140.82344 38919 ft 509 kts 20°
2026-04-25 07:55 4.11868 -140.79334 38919 ft 509 kts 20°
2026-04-25 07:56 4.18286 -140.76324 38923 ft 511 kts 20°
2026-04-25 07:56 4.24729 -140.73301 38922 ft 512 kts 20°
2026-04-25 07:57 4.31171 -140.70276 38922 ft 512 kts 20°
2026-04-25 07:57 4.37623 -140.67247 38922 ft 512 kts 20°
2026-04-25 07:58 4.44068 -140.64219 38924 ft 512 kts 19°
2026-04-25 07:58 4.50502 -140.61196 38922 ft 510 kts 19°
2026-04-25 07:59 4.56938 -140.58174 38922 ft 510 kts 19°
2026-04-25 07:59 4.63366 -140.55154 38925 ft 510 kts 19°
2026-04-25 08:00 4.69793 -140.52134 38927 ft 510 kts 19°
2026-04-25 08:00 4.76214 -140.49115 38927 ft 508 kts 20°
2026-04-25 08:01 4.82607 -140.46109 38925 ft 507 kts 20°
2026-04-25 08:01 4.89000 -140.43103 38925 ft 507 kts 20°
2026-04-25 08:02 4.95339 -140.40122 38925 ft 507 kts 20°
2026-04-25 08:02 5.01733 -140.37114 38925 ft 508 kts 20°
2026-04-25 08:03 5.08134 -140.34102 38925 ft 508 kts 20°
2026-04-25 08:03 5.14541 -140.31087 38925 ft 509 kts 20°
2026-04-25 08:04 5.20989 -140.28051 38925 ft 509 kts 20°
2026-04-25 08:04 5.27351 -140.25056 38931 ft 509 kts 20°
2026-04-25 08:05 5.33817 -140.22011 38922 ft 511 kts 20°
2026-04-25 08:05 5.40205 -140.19002 38925 ft 511 kts 20°
2026-04-25 08:06 5.46640 -140.15969 38927 ft 511 kts 20°
2026-04-25 08:06 5.53065 -140.12940 38930 ft 510 kts 20°
2026-04-25 08:07 5.59499 -140.09908 38928 ft 511 kts 20°
2026-04-25 08:07 5.65929 -140.06876 38927 ft 511 kts 20°
2026-04-25 08:08 5.72358 -140.03843 38930 ft 511 kts 20°
2026-04-25 08:08 5.78792 -140.00808 38930 ft 511 kts 20°
2026-04-25 08:09 5.85223 -139.97774 38928 ft 511 kts 20°
2026-04-25 08:09 5.91666 -139.94733 38928 ft 511 kts 21°
2026-04-25 08:10 5.98097 -139.91696 38931 ft 511 kts 20°
2026-04-25 08:10 6.04533 -139.88656 38930 ft 511 kts 20°
2026-04-25 08:11 6.10956 -139.85622 38930 ft 511 kts 20°
2026-04-25 08:11 6.17392 -139.82581 38930 ft 511 kts 20°
2026-04-25 08:12 6.23826 -139.79541 38933 ft 511 kts 21°
2026-04-25 08:12 6.30258 -139.76500 38935 ft 511 kts 21°
2026-04-25 08:13 6.36694 -139.73456 38929 ft 511 kts 21°
2026-04-25 08:14 6.46351 -139.68888 38935 ft 511 kts 21°
2026-04-25 08:14 6.52781 -139.65846 38935 ft 511 kts 21°
2026-04-25 08:15 6.59220 -139.62797 38930 ft 511 kts 21°
2026-04-25 08:15 6.65614 -139.59770 38931 ft 511 kts 21°
2026-04-25 08:16 6.72051 -139.56721 38931 ft 512 kts 21°
2026-04-25 08:16 6.78542 -139.53646 38929 ft 512 kts 21°
2026-04-25 08:17 6.84935 -139.50616 38932 ft 511 kts 22°
2026-04-25 08:17 6.91369 -139.47566 38934 ft 511 kts 21°
2026-04-25 08:18 6.97798 -139.44517 38932 ft 511 kts 21°
2026-04-25 08:18 7.04239 -139.41463 38937 ft 512 kts 21°
2026-04-25 08:19 7.10684 -139.38405 38939 ft 512 kts 21°
2026-04-25 08:19 7.17130 -139.35345 38936 ft 512 kts 21°
2026-04-25 08:20 7.23576 -139.32284 38938 ft 513 kts 21°
2026-04-25 08:20 7.30036 -139.29217 38935 ft 514 kts 21°
2026-04-25 08:21 7.36505 -139.26143 38938 ft 514 kts 21°
2026-04-25 08:21 7.42964 -139.23074 38938 ft 514 kts 21°
2026-04-25 08:22 7.49428 -139.20000 38940 ft 514 kts 21°
2026-04-25 08:22 7.55911 -139.16918 38939 ft 515 kts 21°
2026-04-25 08:23 7.62396 -139.13833 38943 ft 516 kts 21°
2026-04-25 08:23 7.68841 -139.10766 38943 ft 515 kts 21°
2026-04-25 08:24 7.75328 -139.07678 38942 ft 515 kts 22°
2026-04-25 08:24 7.81816 -139.04588 38945 ft 516 kts 22°
2026-04-25 08:25 7.88305 -139.01497 38943 ft 516 kts 22°
2026-04-25 08:25 7.94790 -138.98407 38940 ft 516 kts 22°
2026-04-25 08:26 8.01284 -138.95311 38945 ft 516 kts 22°
2026-04-25 08:26 8.07780 -138.92213 38944 ft 516 kts 22°
2026-04-25 08:27 8.14274 -138.89115 38941 ft 516 kts 22°
2026-04-25 08:27 8.20769 -138.86015 38940 ft 517 kts 22°
2026-04-25 08:28 8.27268 -138.82913 38944 ft 517 kts 22°
2026-04-25 08:28 8.33774 -138.79806 38945 ft 519 kts 21°
2026-04-25 08:29 8.40310 -138.76684 38945 ft 520 kts 21°
2026-04-25 08:29 8.46861 -138.73553 38942 ft 520 kts 21°
2026-04-25 08:30 8.53406 -138.70424 38942 ft 521 kts 21°
2026-04-25 08:30 8.59961 -138.67288 38947 ft 523 kts 20°
2026-04-25 08:31 8.66555 -138.64134 38945 ft 525 kts 21°
2026-04-25 08:31 8.73111 -138.60996 38947 ft 524 kts 21°
2026-04-25 08:32 8.79708 -138.57836 38947 ft 524 kts 21°
2026-04-25 08:32 8.86303 -138.54677 38946 ft 524 kts 21°
2026-04-25 08:33 8.92896 -138.51518 38950 ft 524 kts 21°
2026-04-25 08:33 8.98421 -138.48869 38949 ft 524 kts 21°
2026-04-25 08:34 9.04969 -138.45729 38953 ft 524 kts 21°
2026-04-25 08:34 9.11559 -138.42567 38949 ft 525 kts 21°
2026-04-25 08:35 9.18174 -138.39393 38953 ft 526 kts 21°
2026-04-25 08:35 9.24783 -138.36219 38949 ft 526 kts 21°
2026-04-25 08:36 9.31394 -138.33044 38955 ft 526 kts 21°
2026-04-25 08:36 9.38004 -138.29867 38950 ft 526 kts 21°
2026-04-25 08:37 9.44623 -138.26685 38942 ft 526 kts 21°
2026-04-25 08:37 9.51242 -138.23501 38960 ft 526 kts 21°
2026-04-25 08:38 9.57854 -138.20320 38960 ft 526 kts 21°
2026-04-25 08:38 9.64460 -138.17139 38948 ft 525 kts 21°
2026-04-25 08:39 9.71053 -138.13964 38952 ft 524 kts 21°
2026-04-25 08:39 9.77644 -138.10789 38948 ft 525 kts 21°
2026-04-25 08:40 9.84238 -138.07610 38964 ft 525 kts 21°
2026-04-25 08:40 9.90824 -138.04435 38959 ft 523 kts 22°
2026-04-25 08:41 9.97395 -138.01264 38949 ft 523 kts 22°
2026-04-25 08:41 10.03802 -137.97727 38967 ft 525 kts 27°
2026-04-25 08:42 10.10104 -137.93972 38958 ft 525 kts 27°
2026-04-25 08:42 10.16369 -137.90193 38963 ft 524 kts 27°
2026-04-25 08:43 10.22591 -137.86442 38962 ft 523 kts 27°
2026-04-25 08:43 10.28848 -137.82677 38959 ft 523 kts 27°
2026-04-25 08:44 10.35106 -137.78913 38958 ft 523 kts 27°
2026-04-25 08:44 10.41348 -137.75157 38964 ft 521 kts 27°
2026-04-25 08:45 10.47621 -137.71381 38961 ft 520 kts 27°
2026-04-25 08:45 10.53847 -137.67631 38965 ft 520 kts 27°
2026-04-25 08:46 10.60027 -137.63907 38962 ft 520 kts 27°
2026-04-25 08:46 10.66242 -137.60160 38961 ft 519 kts 27°
2026-04-25 08:47 10.72462 -137.56408 38965 ft 519 kts 27°
2026-04-25 08:47 10.78667 -137.52663 38967 ft 519 kts 27°
2026-04-25 08:48 10.84882 -137.48911 38966 ft 519 kts 27°
2026-04-25 08:48 10.91094 -137.45158 38962 ft 519 kts 27°
2026-04-25 08:49 10.97303 -137.41406 38967 ft 519 kts 27°
2026-04-25 08:49 11.03506 -137.37655 38968 ft 519 kts 27°
2026-04-25 08:50 11.09709 -137.33903 38973 ft 519 kts 27°
2026-04-25 08:50 11.15929 -137.30138 38969 ft 521 kts 27°
2026-04-25 08:51 11.22160 -137.26365 38965 ft 521 kts 27°
2026-04-25 08:51 11.28391 -137.22590 38965 ft 521 kts 27°
2026-04-25 08:52 11.34617 -137.18815 38963 ft 521 kts 27°
2026-04-25 08:52 11.40807 -137.15061 38971 ft 521 kts 27°
2026-04-25 08:53 11.47028 -137.11285 38972 ft 520 kts 27°
2026-04-25 08:53 11.53247 -137.07510 38972 ft 520 kts 27°
2026-04-25 08:54 11.59469 -137.03730 38976 ft 520 kts 27°
2026-04-25 08:54 11.65692 -136.99949 38972 ft 522 kts 27°
2026-04-25 08:55 11.71931 -136.96155 38969 ft 522 kts 27°
2026-04-25 08:55 11.78160 -136.92365 38974 ft 521 kts 27°
2026-04-25 08:56 11.84390 -136.88572 38979 ft 521 kts 27°
2026-04-25 08:56 11.90617 -136.84779 38978 ft 521 kts 27°
2026-04-25 08:57 11.96848 -136.80982 38973 ft 521 kts 27°
2026-04-25 08:57 12.03081 -136.77182 38974 ft 521 kts 27°
2026-04-25 08:58 12.09307 -136.73384 38975 ft 521 kts 28°
2026-04-25 08:58 12.15531 -136.69585 38973 ft 521 kts 28°
2026-04-25 08:59 12.21757 -136.65782 38976 ft 521 kts 28°
2026-04-25 08:59 12.27976 -136.61982 38977 ft 521 kts 28°
2026-04-25 09:00 12.34197 -136.58179 38976 ft 521 kts 28°
2026-04-25 09:00 12.40418 -136.54373 38982 ft 521 kts 28°
2026-04-25 09:01 12.46601 -136.50588 38980 ft 521 kts 28°
2026-04-25 09:01 12.52821 -136.46779 38978 ft 521 kts 28°
2026-04-25 09:02 12.59027 -136.42976 38983 ft 520 kts 28°
2026-04-25 09:02 12.65248 -136.39161 38980 ft 520 kts 28°
2026-04-25 09:03 12.71459 -136.35351 38979 ft 520 kts 28°
2026-04-25 09:03 12.77664 -136.31542 38984 ft 520 kts 28°
2026-04-25 09:04 12.83872 -136.27729 38979 ft 520 kts 28°
2026-04-25 09:04 12.90077 -136.23916 38975 ft 520 kts 28°
2026-04-25 09:05 12.96277 -136.20103 38979 ft 520 kts 28°
2026-04-25 09:05 13.02475 -136.16290 38983 ft 519 kts 28°
2026-04-25 09:06 13.08665 -136.12479 38979 ft 519 kts 28°
2026-04-25 09:06 13.14855 -136.08665 38980 ft 519 kts 28°
2026-04-25 09:07 13.21044 -136.04851 38982 ft 519 kts 28°
2026-04-25 09:07 13.27235 -136.01033 38988 ft 519 kts 27°
2026-04-25 09:08 13.33426 -135.97213 38976 ft 520 kts 27°
2026-04-25 09:08 13.39625 -135.93385 38987 ft 519 kts 28°
2026-04-25 09:09 13.45821 -135.89557 38982 ft 519 kts 28°
2026-04-25 09:09 13.52010 -135.85730 38990 ft 520 kts 27°
2026-04-25 09:10 13.58175 -135.81916 38985 ft 520 kts 27°
2026-04-25 09:10 13.64415 -135.78054 38993 ft 520 kts 27°
2026-04-25 09:11 13.73674 -135.72318 38990 ft 520 kts 27°
2026-04-25 09:11 13.79905 -135.68455 38989 ft 520 kts 27°
2026-04-25 09:12 13.86103 -135.64610 38984 ft 520 kts 27°
2026-04-25 09:12 13.92248 -135.60795 38996 ft 520 kts 27°
2026-04-25 09:13 13.98447 -135.56945 38980 ft 520 kts 27°
2026-04-25 09:13 14.04647 -135.53092 38981 ft 520 kts 27°
2026-04-25 09:14 14.10839 -135.49240 38997 ft 520 kts 27°
2026-04-25 09:14 14.17030 -135.45387 38991 ft 520 kts 27°
2026-04-25 09:15 14.23229 -135.41527 38990 ft 521 kts 27°
2026-04-25 09:15 14.29432 -135.37662 38989 ft 521 kts 27°
2026-04-25 09:16 14.35620 -135.33804 38989 ft 520 kts 27°
2026-04-25 09:16 14.41824 -135.29932 38991 ft 521 kts 27°
2026-04-25 09:17 14.51126 -135.24124 38993 ft 521 kts 27°
2026-04-25 09:18 14.57331 -135.20246 38996 ft 521 kts 27°
2026-04-25 09:18 14.63536 -135.16364 38996 ft 522 kts 27°
2026-04-25 09:19 14.69751 -135.12475 38997 ft 522 kts 27°
2026-04-25 09:19 14.74911 -135.09244 38995 ft 522 kts 27°
2026-04-25 09:20 14.82168 -135.04697 38998 ft 522 kts 27°
2026-04-25 09:20 14.87331 -135.01459 38996 ft 522 kts 27°
2026-04-25 09:21 14.93547 -134.97559 39001 ft 522 kts 27°
2026-04-25 09:21 14.99759 -134.93659 39000 ft 522 kts 27°
2026-04-25 09:22 15.05971 -134.89756 38998 ft 522 kts 27°
2026-04-25 09:22 15.12184 -134.85849 39002 ft 523 kts 27°
2026-04-25 09:23 15.18412 -134.81932 38999 ft 524 kts 27°
2026-04-25 09:23 15.24635 -134.78013 39003 ft 524 kts 27°
2026-04-25 09:24 15.30863 -134.74088 39005 ft 524 kts 27°
2026-04-25 09:24 15.37086 -134.70165 39005 ft 524 kts 27°
2026-04-25 09:25 15.43328 -134.66228 39001 ft 526 kts 27°
2026-04-25 09:25 15.49579 -134.62281 39007 ft 527 kts 27°
2026-04-25 09:26 15.55797 -134.58351 39000 ft 527 kts 27°
2026-04-25 09:26 15.62053 -134.54395 39006 ft 527 kts 27°
2026-04-25 09:27 15.68305 -134.50440 39003 ft 526 kts 27°
2026-04-25 09:27 15.74558 -134.46481 39000 ft 526 kts 27°
2026-04-25 09:28 15.80810 -134.42519 39002 ft 526 kts 27°
2026-04-25 09:28 15.86940 -134.38325 39003 ft 528 kts 31°
2026-04-25 09:29 15.92928 -134.33891 39006 ft 529 kts 32°
2026-04-25 09:29 15.98930 -134.29471 39007 ft 529 kts 31°
2026-04-25 09:30 16.04970 -134.25088 39003 ft 530 kts 31°
2026-04-25 09:30 16.11035 -134.20710 39003 ft 531 kts 31°
2026-04-25 09:31 16.17104 -134.16328 39009 ft 531 kts 31°
2026-04-25 09:31 16.23171 -134.11942 39006 ft 531 kts 31°
2026-04-25 09:32 16.29191 -134.07585 39011 ft 531 kts 31°
2026-04-25 09:32 16.35258 -134.03191 39006 ft 531 kts 31°
2026-04-25 09:33 16.41323 -133.98794 39007 ft 532 kts 31°
2026-04-25 09:33 16.47393 -133.94391 39006 ft 532 kts 31°
2026-04-25 09:34 16.53458 -133.89987 39008 ft 531 kts 31°
2026-04-25 09:34 16.59522 -133.85581 39006 ft 532 kts 31°
2026-04-25 09:35 16.65595 -133.81165 39008 ft 532 kts 31°
2026-04-25 09:35 16.71658 -133.76753 39007 ft 532 kts 31°
2026-04-25 09:36 16.77717 -133.72340 39010 ft 532 kts 31°
2026-04-25 09:36 16.83787 -133.67916 39010 ft 532 kts 31°
2026-04-25 09:37 16.89849 -133.63494 39012 ft 532 kts 31°
2026-04-25 09:37 16.95910 -133.59069 39013 ft 532 kts 31°
2026-04-25 09:38 17.01990 -133.54627 39017 ft 533 kts 31°
2026-04-25 09:38 17.08065 -133.50185 39015 ft 533 kts 31°
2026-04-25 09:39 17.14141 -133.45738 39015 ft 533 kts 31°
2026-04-25 09:39 17.20207 -133.41295 39015 ft 533 kts 31°
2026-04-25 09:40 17.29338 -133.34603 39016 ft 537 kts 31°
2026-04-25 09:40 17.35462 -133.30109 39017 ft 538 kts 31°
2026-04-25 09:41 17.41591 -133.25606 39015 ft 538 kts 31°
2026-04-25 09:41 17.47720 -133.21098 39014 ft 538 kts 31°
2026-04-25 09:42 17.53811 -133.16617 39016 ft 538 kts 31°
2026-04-25 09:42 17.59952 -133.12096 39018 ft 540 kts 31°
2026-04-25 09:43 17.66102 -133.07564 39020 ft 541 kts 31°
2026-04-25 09:43 17.72258 -133.03023 39022 ft 541 kts 31°
2026-04-25 09:44 17.78416 -132.98476 39020 ft 541 kts 31°
2026-04-25 09:44 17.84575 -132.93924 39020 ft 541 kts 31°
2026-04-25 09:45 17.90728 -132.89375 39021 ft 541 kts 31°
2026-04-25 09:45 17.96874 -132.84826 39020 ft 541 kts 31°
2026-04-25 09:46 18.03027 -132.80267 39023 ft 541 kts 31°
2026-04-25 09:46 18.09186 -132.75701 39023 ft 541 kts 31°
2026-04-25 09:47 18.15336 -132.71137 39023 ft 541 kts 31°
2026-04-25 09:47 18.21479 -132.66574 39024 ft 540 kts 31°
2026-04-25 09:48 18.27574 -132.62042 39023 ft 540 kts 31°
2026-04-25 09:48 18.33710 -132.57477 39023 ft 540 kts 31°
2026-04-25 09:49 18.39839 -132.52912 39023 ft 540 kts 31°
2026-04-25 09:49 18.45975 -132.48338 39023 ft 540 kts 31°
2026-04-25 09:50 18.52107 -132.43764 39012 ft 539 kts 31°
2026-04-25 09:50 18.58225 -132.39195 39032 ft 539 kts 31°
2026-04-25 09:51 18.64334 -132.34629 39014 ft 538 kts 31°
2026-04-25 09:51 18.70445 -132.30058 39018 ft 538 kts 31°
2026-04-25 09:52 18.76548 -132.25488 39020 ft 538 kts 31°
2026-04-25 09:52 18.82656 -132.20911 39031 ft 538 kts 31°
2026-04-25 09:53 18.88758 -132.16334 39019 ft 538 kts 31°
2026-04-25 09:53 18.94855 -132.11755 39031 ft 538 kts 31°
2026-04-25 09:54 19.00910 -132.07205 39017 ft 538 kts 31°
2026-04-25 09:54 19.07004 -132.02621 39028 ft 538 kts 31°
2026-04-25 09:55 19.13097 -131.98034 39037 ft 538 kts 31°
2026-04-25 09:55 19.19189 -131.93444 39016 ft 538 kts 31°
2026-04-25 09:56 19.25281 -131.88849 39026 ft 538 kts 31°
2026-04-25 09:56 19.31374 -131.84249 39023 ft 538 kts 31°
2026-04-25 09:57 19.37461 -131.79649 39023 ft 538 kts 31°
2026-04-25 09:57 19.43553 -131.75041 39024 ft 538 kts 31°
2026-04-25 09:58 19.49639 -131.70433 39034 ft 538 kts 31°
2026-04-25 09:58 19.55735 -131.65814 39027 ft 539 kts 32°
2026-04-25 09:59 19.61834 -131.61188 39030 ft 539 kts 32°
2026-04-25 09:59 19.67924 -131.56564 39028 ft 539 kts 32°
2026-04-25 10:00 19.73984 -131.51958 39034 ft 539 kts 32°
2026-04-25 10:00 19.80081 -131.47320 39037 ft 539 kts 32°
2026-04-25 10:01 19.86183 -131.42675 39026 ft 540 kts 32°
2026-04-25 10:01 19.92282 -131.38026 39026 ft 540 kts 32°
2026-04-25 10:02 19.98382 -131.33372 39028 ft 540 kts 32°
2026-04-25 10:02 20.04476 -131.28718 39028 ft 540 kts 32°
2026-04-25 10:03 20.10579 -131.24053 39041 ft 540 kts 31°
2026-04-25 10:03 20.16680 -131.19385 39030 ft 541 kts 31°
2026-04-25 10:04 20.22789 -131.14706 39035 ft 541 kts 32°
2026-04-25 10:04 20.28901 -131.10020 39032 ft 541 kts 32°
2026-04-25 10:05 20.35014 -131.05329 39035 ft 541 kts 32°
2026-04-25 10:05 20.41118 -131.00640 39031 ft 541 kts 32°
2026-04-25 10:06 20.47234 -130.95937 39035 ft 542 kts 32°
2026-04-25 10:06 20.53357 -130.91225 39039 ft 543 kts 32°
2026-04-25 10:07 20.59438 -130.86539 39034 ft 543 kts 32°
2026-04-25 10:07 20.65555 -130.81821 39036 ft 543 kts 32°
2026-04-25 10:08 20.71681 -130.77091 39032 ft 543 kts 32°
2026-04-25 10:08 20.77796 -130.72365 39040 ft 543 kts 31°
2026-04-25 10:09 20.83932 -130.67619 39038 ft 545 kts 31°
2026-04-25 10:09 20.90073 -130.62863 39042 ft 545 kts 31°
2026-04-25 10:10 20.96205 -130.58109 39042 ft 545 kts 31°
2026-04-25 10:10 21.01306 -130.54150 39045 ft 545 kts 31°
2026-04-25 10:11 21.07448 -130.49379 39055 ft 545 kts 31°
2026-04-25 10:11 21.13585 -130.44608 39044 ft 546 kts 31°
2026-04-25 10:12 21.19733 -130.39824 39042 ft 546 kts 31°
2026-04-25 10:13 21.28948 -130.32641 39042 ft 546 kts 31°
2026-04-25 10:13 21.35097 -130.27843 39046 ft 546 kts 31°
2026-04-25 10:14 21.41240 -130.23043 39060 ft 546 kts 31°
2026-04-25 10:14 21.47390 -130.18234 39047 ft 548 kts 31°
2026-04-25 10:15 21.53547 -130.13414 39044 ft 548 kts 31°
2026-04-25 10:15 21.59701 -130.08591 39046 ft 548 kts 31°
2026-04-25 10:16 21.65860 -130.03759 39045 ft 548 kts 31°
2026-04-25 10:16 21.72017 -129.98923 39045 ft 548 kts 31°
2026-04-25 10:17 21.78176 -129.94081 39045 ft 549 kts 31°
2026-04-25 10:17 21.84341 -129.89228 39045 ft 549 kts 31°
2026-04-25 10:18 21.90506 -129.84370 39048 ft 549 kts 31°
2026-04-25 10:18 21.96675 -129.79504 39048 ft 549 kts 31°
2026-04-25 10:19 22.02834 -129.74639 39048 ft 549 kts 31°
2026-04-25 10:19 22.08996 -129.69767 39048 ft 549 kts 31°
2026-04-25 10:20 22.15111 -129.64928 39048 ft 549 kts 31°
2026-04-25 10:20 22.21270 -129.60048 39048 ft 549 kts 31°
2026-04-25 10:21 22.27425 -129.55166 39048 ft 549 kts 31°
2026-04-25 10:21 22.33584 -129.50275 39238 ft 549 kts 31°
2026-04-25 10:21 22.36657 -129.47832 39443 ft 548 kts 31°
2026-04-25 10:22 22.39726 -129.45390 39600 ft 548 kts 31°
2026-04-25 10:22 22.42796 -129.42948 39730 ft 548 kts 31°
2026-04-25 10:22 22.45868 -129.40503 39890 ft 548 kts 31°
2026-04-25 10:22 22.48935 -129.38060 40054 ft 547 kts 31°
2026-04-25 10:23 22.51995 -129.35620 40194 ft 547 kts 31°
2026-04-25 10:23 22.55052 -129.33183 40356 ft 546 kts 31°
2026-04-25 10:23 22.58114 -129.30740 40485 ft 546 kts 31°
2026-04-25 10:23 22.61169 -129.28303 40619 ft 546 kts 31°
2026-04-25 10:24 22.64239 -129.25888 40759 ft 545 kts 30°
2026-04-25 10:24 22.67325 -129.23505 40868 ft 544 kts 30°
2026-04-25 10:24 22.70414 -129.21135 40998 ft 544 kts 30°
2026-04-25 10:25 22.76600 -129.16389 41056 ft 545 kts 30°
2026-04-25 10:25 22.82786 -129.11615 41053 ft 546 kts 30°
2026-04-25 10:26 22.88971 -129.06824 41055 ft 546 kts 30°
2026-04-25 10:26 22.95145 -129.02033 41046 ft 546 kts 30°
2026-04-25 10:27 23.01325 -128.97232 41052 ft 546 kts 30°
2026-04-25 10:27 23.07510 -128.92422 41051 ft 548 kts 30°
2026-04-25 10:28 23.13718 -128.87591 41061 ft 549 kts 30°
2026-04-25 10:28 23.19922 -128.82756 41058 ft 549 kts 30°
2026-04-25 10:29 23.26133 -128.77908 41052 ft 549 kts 30°
2026-04-25 10:29 23.32333 -128.73065 41047 ft 549 kts 30°
2026-04-25 10:30 23.38534 -128.68214 41054 ft 550 kts 30°
2026-04-25 10:30 23.44757 -128.63342 41056 ft 551 kts 30°
2026-04-25 10:31 23.50985 -128.58460 41055 ft 552 kts 30°
2026-04-25 10:31 23.57214 -128.53571 41053 ft 552 kts 30°
2026-04-25 10:32 23.63445 -128.48674 41053 ft 552 kts 30°
2026-04-25 10:32 23.69668 -128.43778 41069 ft 552 kts 30°
2026-04-25 10:33 23.75910 -128.38863 41054 ft 554 kts 30°
2026-04-25 10:33 23.82171 -128.33925 41056 ft 555 kts 30°
2026-04-25 10:34 23.88426 -128.28985 41056 ft 555 kts 30°
2026-04-25 10:34 23.94676 -128.24043 41055 ft 555 kts 30°
2026-04-25 10:35 24.00929 -128.19094 41084 ft 555 kts 30°
2026-04-25 10:35 24.07188 -128.14132 41059 ft 556 kts 30°
2026-04-25 10:36 24.13459 -128.09157 41063 ft 557 kts 30°
2026-04-25 10:36 24.19734 -128.04172 41059 ft 557 kts 30°
2026-04-25 10:37 24.26001 -127.99186 41060 ft 557 kts 30°
2026-04-25 10:37 24.32224 -127.94229 41062 ft 557 kts 30°
2026-04-25 10:38 24.38497 -127.89228 41066 ft 559 kts 29°
2026-04-25 10:38 24.44802 -127.84195 41062 ft 560 kts 30°
2026-04-25 10:39 24.51101 -127.79158 41065 ft 561 kts 30°
2026-04-25 10:39 24.57404 -127.74111 41065 ft 561 kts 30°
2026-04-25 10:40 24.63710 -127.69056 41070 ft 561 kts 29°
2026-04-25 10:40 24.70025 -127.63990 41065 ft 562 kts 29°
2026-04-25 10:41 24.76348 -127.58910 41067 ft 563 kts 29°
2026-04-25 10:41 24.78443 -127.57224 41067 ft 563 kts 30°